Regional Weather Roundup
Issued by NWS

Home | Current Version | Previous Version | Graphics & Text | Print | Product List | Glossary Off
Versions: 1 2 3 4 5 6 7 8 9 10 11 12 13 14 15 16 17 18 19 20 21 22 23 24 25 26 27 28 29 30 31 32 33 34 35 36 37 38 39 40 41 42 43 44 45 46 47 48 49 50

000
ASUS43 KMPX 200710
RWRMN
WEATHER ROUNDUP FOR MINNESOTA
NATIONAL WEATHER SERVICE TWIN CITIES/CHANHASSEN MN
100 AM CST SAT JAN 20 2018


NOTE: "FAIR" INDICATES FEW OR NO CLOUDS BELOW 12,000 FEET WITH NO
SIGNIFICANT WEATHER AND/OR OBSTRUCTIONS TO VISIBILITY. N/A MEANS
CURRENT SKY AND/OR WEATHER CONDITIONS ARE NOT AVAILABLE.

MNZ060>063-068>070-200800-
   Twin Cities Metro

CITY           SKY/WX    TMP DP  RH WIND       PRES   REMARKS
TWIN CITIES    MOCLDY    31  28  89 CALM      29.74R
ST PAUL        FAIR      28  27  96 CALM      29.75R
CRYSTAL        FAIR      33  26  75 VRB3      29.73R
BLAINE         FAIR      34  30  86 W5        29.73R WCI  30
LAKEVILLE      FAIR      32  30  93 W5        29.74R WCI  27
EDEN PRAIRIE   FAIR      35  29  78 NW6       29.73R WCI  30
SOUTH ST PAUL  FAIR      32  29  86 CALM      29.74R
LAKE ELMO      FAIR      34  30  86 W3        29.74R
$$
MNZ001>005-007-008-013>017-022>024-027-028-200800-
   Northwest Minnesota

CITY           SKY/WX    TMP DP  RH WIND       PRES   REMARKS
BEMIDJI        FAIR      27  25  94 W5        29.66S WCI  21
HALLOCK        FAIR      25  21  86 SW8       29.65R WCI  16
ROSEAU         MOCLDY    32  27  80 SW7       29.63R WCI  26
WARROAD        CLOUDY    34  28  80 W12       29.62R WCI  25
THIEF RVR FALL FAIR      27  25  92 W9        29.67R WCI  18
CROOKSTON      FAIR      27  25  93 W8        29.69S WCI  18
FOSSTON        FAIR      19  19 100 S6        29.69R WCI  11
DETROIT LAKES  FAIR      32  28  86 NW3       29.70S
MOORHEAD       FAIR      25  23  93 CALM      29.73R
PARK RAPIDS    FAIR      26  22  84 NW5       29.68R WCI  20
MAHNOMEN       FAIR      23  22  96 SW3       29.70R
$$
MNZ006-009>011-018-025>026-200800-
   North Central Minnesota

CITY           SKY/WX    TMP DP  RH WIND       PRES   REMARKS
BAUDETTE       CLOUDY    33  30  88 SW5       29.60R WCI  29
FLAG ISLAND    CLOUDY    34  28  80 W5        29.58R WCI  30
INTL FALLS     CLOUDY    35  29  78 SW8       29.60R WCI  29
WASKISH        FAIR      30  28  93 SW8       29.65R WCI  23
BIG FORK       FAIR      32  28  86 SW5       29.64S WCI  27
LONGVILLE      FAIR      23  21  93 CALM      29.68R
GRAND RAPIDS   FAIR      28  26  92 W5        29.67S WCI  23
CRANE LAKE     CLOUDY    34  30  86 W5        29.63R WCI  30
ORR            CLOUDY    36  28  75 W7        29.60R
COOK           CLOUDY    36  30  80 W7        29.63R
WALKER         FAIR      31  27  86 W7        29.67R WCI  24
$$
MNZ012-019>021-037-200800-
   Northeast Minnesota

CITY           SKY/WX    TMP DP  RH WIND       PRES   REMARKS
DULUTH         FAIR      33  29  85 NW13      29.63R WCI  24
ELY            CLOUDY    34  28  80 W12G17    29.61R WCI  25
HIBBING        CLOUDY    34  29  82 W5        29.64R WCI  30
EVELETH        MOCLDY    32  27  82 W6        29.64R WCI  27
DULUTH HARBOR  FAIR      37  30  75 NW16      29.66R
TWO HARBORS    FAIR      37  30  75 W10G16    29.59R
SILVER BAY     FAIR      37  30  75 NW8G25    29.57R
GRAND MARAIS     N/A     40  31  70 W10G18    29.57R
G MARAIS ARPRT CLOUDY    34  25  69 W10G20    29.54R WCI  26
$$
MNZ029>031-032-039>041-046>048-054>057-064-200800-
   West Central Minnesota

CITY           SKY/WX    TMP DP  RH WIND       PRES   REMARKS
FERGUS FALLS   FOG       25  25 100 CALM      29.72R VSB 1/2
WHEATON        CLEAR     30  27  86 W3        29.76S
MORRIS         CLEAR     27  27 100 W7        29.74R WCI  19
ALEXANDRIA     FAIR      26  25  96 SW8       29.73R WCI  18
ELBOW LAKE     FAIR      26  25  95 SW7       29.74R WCI  19
WADENA         FAIR      23  23 100 CALM      29.70R
GLENWOOD       FAIR      27  27 100 W9        29.74R WCI  17
APPLETON       CLOUDY    28  25  86 SW6       29.77R WCI  22
BENSON         CLEAR     23  21  93 W5        29.77R WCI  17
ORTONVILLE     CLEAR     28  25  86 CALM      29.75S
MADISON        CLOUDY    34  28  80 W7        29.77R WCI  28
WILLMAR        FAIR      30  28  93 CALM      29.77R
$$
MNZ033>034-036-042>043-049>051-058-059-200800-
   Central Minnesota

CITY           SKY/WX    TMP DP  RH WIND       PRES   REMARKS
ST CLOUD       FAIR      29  26  89 W3        29.72R
SAUK CENTRE      N/A     29  27  94 W5        29.72S WCI  24
PAYNESVILLE    FAIR      29  29  99 CALM      29.73F
AITKIN         FAIR      25  23  93 CALM      29.66S
PINE RIVER     FAIR      27  25  93 N3        29.71S
BRAINERD       FAIR      28  25  88 SW3       29.69R
STAPLES        FAIR      23  23 100 NW6       29.69S WCI  16
LONG PRAIRIE   FAIR      25  23  93 CALM      29.71S
LITTLE FALLS   FAIR      27  23  86 CALM      29.71S FOG
LITCHFIELD     FAIR      34  30  86 CALM      29.75R
BUFFALO        FAIR      30  27  86 CALM      29.74S
MAPLE LAKE     FAIR      33  30  91 MISG      29.74S
HUTCHINSON     FAIR      32  31  94 W5        29.75S WCI  27
$$
MNZ037-044-045-052-053-200800-
   East Central Minnesota

CITY           SKY/WX    TMP DP  RH WIND       PRES   REMARKS
PRINCETON      FAIR      28  25  86 CALM      29.72R
MORA           FAIR      27  23  86 CALM      29.72R
CAMBRIDGE      FAIR      27  21  80 CALM      29.72R
RUSH CITY      FAIR      31  27  85 W3        29.71R
MOOSE LAKE     FAIR      32  28  86 W3        29.66R
HINCKLEY       FAIR      28  28 100 W3        29.71R
CLOQUET        FAIR      34  27  75 NW8       29.65R WCI  27
MCGREGOR       FAIR      32  30  93 CALM      29.67S
$$
MNZ071>073-080-081-089-090-097-098-200800-
   Southwest Minnesota

CITY           SKY/WX    TMP DP  RH WIND       PRES   REMARKS
MONTEVIDEO     PTCLDY    34  28  80 NW6       29.76R WCI  29
GRANITE FALLS  PTCLDY    31  28  89 W6        29.78R WCI  25
CANBY          PTCLDY    33  29  84 NW5       29.77R WCI  29
MARSHALL       PTCLDY    33  28  81 W8        29.76S WCI  26
REDWOOD FALLS  CLOUDY    33  28  81 NW7       29.75S WCI  27
OLIVIA         MOCLDY    30  28  93 W3        29.74F
PIPESTONE      PTCLDY    34  28  80 CALM      29.74F
WINDOM         CLEAR     34  18  51 CALM      29.75S
WORTHINGTON    CLOUDY    30  28  92 NW8       29.76S WCI  22
JACKSON        CLOUDY    32  30  93 NW6       29.75S WCI  26
TRACY          PTCLDY    36  31  81 W6        29.75S
SLAYTON        MOCLDY    32  29  90 W5        29.76F WCI  27
$$
MNZ065>067-074>077-082>085-091>093-200800-
   South Central Minnesota

CITY           SKY/WX    TMP DP  RH WIND       PRES   REMARKS
MANKATO        FAIR      34  30  85 NW10      29.76R WCI  26
NEW ULM        MOCLDY    34  28  80 NW6       29.75S WCI  29
ST JAMES       CLOUDY    34  28  80 NW7       29.76S WCI  28
FAIRMONT       PTCLDY    33  29  85 NW6       29.76R WCI  28
GLENCOE        FAIR      34  30  86 W5        29.74R WCI  30
FARIBAULT      FAIR      30  28  93 W3        29.75R
OWATONNA       FAIR      30  28  93 W5        29.75R WCI  25
WASECA         FAIR      32  30  93 W5        29.77R WCI  27
ALBERT LEA     FAIR      34  30  86 NW6       29.74R WCI  29
$$
MNZ078>079-086>088-094>096-200800-
   Southeast Minnesota

CITY           SKY/WX    TMP DP  RH WIND       PRES   REMARKS
ROCHESTER      FAIR      33  30  88 W13       29.72R WCI  24
RED WING       FAIR      28  27  93 W3        29.73R
STANTON        FAIR      33  29  88 CALM      29.73R
DODGE CENTER   FAIR      30  28  93 SW6       29.73R WCI  24
WINONA         FAIR      30  28  93 CALM      29.71R
AUSTIN         FAIR      34  30  86 NW8       29.73R WCI  27
PRESTON        FAIR      33  30  90 W5        29.72S WCI  28
$$
ABBREVIATIONS USED IN REMARKS
   TC - TEMPERATURES IN CELSIUS
  WCI - WIND CHILL INDEX
   HX - HEAT INDEX
  VSB - VISIBILITY
$$




USA.gov is the U.S. government's official web portal to all federal, state and local government web resources and services.